This is the latest recevied weather packets stored in our database for station/object N0HEQ. If no packets are shown the sender has not sent any weather packets the latest 1 day(s).
| Time | Temp. | Humidity | Pressure | Rain* | Wind** | Luminosity | Snow |
|---|---|---|---|---|---|---|---|
| 1777999850 | 2.78° C | 97% | 1017 hPa | 0 mm | 0.89 m/s, 99° | 103 W/m² | - |
| 1777999546 | 2.78° C | 97% | 1017.3 hPa | 0 mm | 0 m/s | 97 W/m² | - |
| 1777999244 | 2.78° C | 97% | 1017.4 hPa | 0 mm | 0.45 m/s, 56° | 73 W/m² | - |
| 1777998943 | 2.78° C | 97% | 1017.3 hPa | 0 mm | 0.89 m/s, 99° | 58 W/m² | - |
| 1777998639 | 2.78° C | 97% | 1017.6 hPa | 0 mm | 0.45 m/s, 53° | 69 W/m² | - |
| 1777998338 | 2.78° C | 97% | 1017.4 hPa | 0 mm | 0.89 m/s, 65° | 75 W/m² | - |
| 1777998035 | 2.78° C | 97% | 1017.3 hPa | 0 mm | 0.89 m/s, 105° | 76 W/m² | - |
| 1777997732 | 2.78° C | 97% | 1017.3 hPa | 0 mm | 0.89 m/s, 43° | 83 W/m² | - |
| 1777997429 | 2.78° C | 97% | 1017.4 hPa | 0 mm | 0 m/s | 75 W/m² | - |
| 1777997127 | 2.78° C | 97% | 1017.3 hPa | 0 mm | 0.89 m/s, 68° | 83 W/m² | - |
| 1777996824 | 2.78° C | 97% | 1017.2 hPa | 0 mm | 0.45 m/s, 71° | 88 W/m² | - |
| 1777996520 | 2.78° C | 97% | 1017.3 hPa | 0 mm | 0.89 m/s, 101° | 97 W/m² | - |
| 1777996216 | 2.78° C | 97% | 1017.4 hPa | 0 mm | 0.45 m/s, 207° | 98 W/m² | - |
| 1777995913 | 2.22° C | 97% | 1017.4 hPa | 0 mm | 0.89 m/s, 47° | 80 W/m² | - |
| 1777995609 | 2.22° C | 97% | 1017.4 hPa | 0 mm | 0 m/s | 51 W/m² | - |
| 1777995307 | 2.22° C | 97% | 1017.3 hPa | 0 mm | 0.89 m/s, 132° | 51 W/m² | - |
| 1777995003 | 2.22° C | 97% | 1017.3 hPa | 0 mm | 0.45 m/s, 54° | 50 W/m² | - |
| 1777994700 | 2.22° C | 97% | 1017.6 hPa | 0 mm | 0 m/s | 51 W/m² | - |
| 1777994395 | 2.22° C | 97% | 1017.4 hPa | 0 mm | 0.89 m/s, 62° | 45 W/m² | - |
| 1777994091 | 2.22° C | 97% | 1017.5 hPa | 0 mm | 0.45 m/s, 252° | 39 W/m² | - |
| 1777993789 | 2.22° C | 97% | 1017.4 hPa | 0 mm | 0 m/s | 39 W/m² | - |
| 1777993485 | 2.22° C | 97% | 1017.5 hPa | 0 mm | 0.45 m/s, 41° | 34 W/m² | - |
| 1777993184 | 2.22° C | 97% | 1017.4 hPa | 0 mm | 0.45 m/s, 48° | 41 W/m² | - |
| 1777992883 | 2.22° C | 97% | 1017.5 hPa | 0 mm | 0 m/s | 40 W/m² | - |
| 1777992581 | 2.22° C | 97% | 1017.5 hPa | 0 mm | 0.89 m/s, 63° | 43 W/m² | - |
* Rain latest hour (hover to see other rain measurements)
** Current wind speed in m/s (hover to see current wind gust speed)